sat.trackr.live / text

‹ back to catalog

STARLINK-32152

NORAD 60275 · 2024-131W

PAYLOAD ACTIVE UNKNOWN

§ Identity

Operator
Country
US
Launch date
2024-07-27
Launch site
AFETR
Launch vehicle
Mass (kg)
RCS (m²)

Purposes: comms

External: N2YO · Heavens-Above · Gunter

§ Orbital elements

Epoch: 2026-09-21T21:37:16.076064Z

Period
93.85 min
Inclination
53.1599°
Eccentricity
0.0001346
Mean motion
15.34384608 rev/d
Perigee alt
461.8 km
Apogee alt
463.7 km
Semi-major
6,840.9 km
B*
-3.8084e-6
RAAN
219.3312°
Arg perigee
89.8440°
Mean anomaly
270.2716°
Rev number
12,168

§ Raw data

STARLINK-321521 60275U 24131W   26264.90088051 -.00000505  00000+0 -38084-5 0  99912 60275  53.1599 219.3312 0001346  89.8440 270.2716 15.34384608121687

JSON: /api/v1/satellites/60275 · /tle

For live sub-satellite position, see the globe view (requires WebGL).

§ Visibility from observer

Set your observer location to see the next 7 days of passes ≥ 10°. The values pass through the URL so the page stays shareable.

No JS? Fill the form by hand. The geolocation button needs JavaScript.